owner,sensor,date,latitude,longitude,relative_humidity,qcFlag 
SCCF RECON,ioos:station:SCCF:16:1,2019-10-01T04:15:00Z,26.4345,-81.9647,84.7,11111222 
SCCF RECON,ioos:station:SCCF:16:1,2019-10-01T05:15:00Z,26.4345,-81.9647,86.2,11111222 
SCCF RECON,ioos:station:SCCF:16:1,2019-10-01T06:15:00Z,26.4345,-81.9647,89.9,11111222 
SCCF RECON,ioos:station:SCCF:16:1,2019-10-01T07:15:00Z,26.4345,-81.9647,92.3,11111222 
SCCF RECON,ioos:station:SCCF:16:1,2019-10-01T08:15:00Z,26.4345,-81.9647,92.3,11111222 
SCCF RECON,ioos:station:SCCF:16:1,2019-10-01T09:15:00Z,26.4345,-81.9647,94.0,11111222 
SCCF RECON,ioos:station:SCCF:16:1,2019-10-01T10:15:00Z,26.4345,-81.9647,92.7,11111222 
SCCF RECON,ioos:station:SCCF:16:1,2019-10-01T11:15:00Z,26.4345,-81.9647,92.1,11111222 
SCCF RECON,ioos:station:SCCF:16:1,2019-10-01T12:15:00Z,26.4345,-81.9647,90.4,11111222 
SCCF RECON,ioos:station:SCCF:16:1,2019-10-01T13:15:00Z,26.4345,-81.9647,82.1,11111222 
SCCF RECON,ioos:station:SCCF:16:1,2019-10-01T14:15:00Z,26.4345,-81.9647,73.7,11111222 
SCCF RECON,ioos:station:SCCF:16:1,2019-10-01T15:15:00Z,26.4345,-81.9647,70.0,11111222 
SCCF RECON,ioos:station:SCCF:16:1,2019-10-01T16:15:00Z,26.4345,-81.9647,66.6,11111222 
SCCF RECON,ioos:station:SCCF:16:1,2019-10-01T17:15:00Z,26.4345,-81.9647,57.2,11111222 
SCCF RECON,ioos:station:SCCF:16:1,2019-10-01T18:15:00Z,26.4345,-81.9647,59.2,11111222 
SCCF RECON,ioos:station:SCCF:16:1,2019-10-01T19:15:00Z,26.4345,-81.9647,60.2,11111222 
SCCF RECON,ioos:station:SCCF:16:1,2019-10-01T20:15:00Z,26.4345,-81.9647,59.6,11111222 
SCCF RECON,ioos:station:SCCF:16:1,2019-10-01T21:15:00Z,26.4345,-81.9647,60.3,11111222 
SCCF RECON,ioos:station:SCCF:16:1,2019-10-01T22:15:00Z,26.4345,-81.9647,60.7,11111222 
SCCF RECON,ioos:station:SCCF:16:1,2019-10-02T05:15:00Z,26.4345,-81.9647,89.5,11111222 
SCCF RECON,ioos:station:SCCF:16:1,2019-10-02T06:15:00Z,26.4345,-81.9647,91.8,11111222 
SCCF RECON,ioos:station:SCCF:16:1,2019-10-02T07:15:00Z,26.4345,-81.9647,92.1,11111222 
SCCF RECON,ioos:station:SCCF:16:1,2019-10-02T08:15:00Z,26.4345,-81.9647,91.6,11111222 
SCCF RECON,ioos:station:SCCF:16:1,2019-10-02T09:15:00Z,26.4345,-81.9647,88.9,11111222 
SCCF RECON,ioos:station:SCCF:16:1,2019-10-02T10:15:00Z,26.4345,-81.9647,89.1,11111222 
SCCF RECON,ioos:station:SCCF:16:1,2019-10-02T11:15:00Z,26.4345,-81.9647,89.3,11111222 
SCCF RECON,ioos:station:SCCF:16:1,2019-10-02T12:15:00Z,26.4345,-81.9647,90.1,11111222 
SCCF RECON,ioos:station:SCCF:16:1,2019-10-02T13:15:00Z,26.4345,-81.9647,85.2,11111222 
SCCF RECON,ioos:station:SCCF:16:1,2019-10-02T14:15:00Z,26.4345,-81.9647,78.8,11111222 
SCCF RECON,ioos:station:SCCF:16:1,2019-10-02T15:15:00Z,26.4345,-81.9647,74.5,11111222 
SCCF RECON,ioos:station:SCCF:16:1,2019-10-02T16:15:00Z,26.4345,-81.9647,67.2,11111222 
SCCF RECON,ioos:station:SCCF:16:1,2019-10-02T17:15:00Z,26.4345,-81.9647,69.9,11111222 
SCCF RECON,ioos:station:SCCF:16:1,2019-10-02T18:15:00Z,26.4345,-81.9647,65.8,11111222 
SCCF RECON,ioos:station:SCCF:16:1,2019-10-02T19:15:00Z,26.4345,-81.9647,66.3,11111222 
SCCF RECON,ioos:station:SCCF:16:1,2019-10-02T20:15:00Z,26.4345,-81.9647,59.7,11111222 
SCCF RECON,ioos:station:SCCF:16:1,2019-10-02T21:15:00Z,26.4345,-81.9647,63.0,11111222 
SCCF RECON,ioos:station:SCCF:16:1,2019-10-02T22:15:00Z,26.4345,-81.9647,67.0,11111222 
SCCF RECON,ioos:station:SCCF:16:1,2019-10-03T04:15:00Z,26.4345,-81.9647,85.5,11111222 
SCCF RECON,ioos:station:SCCF:16:1,2019-10-03T05:15:00Z,26.4345,-81.9647,86.7,11111222 
SCCF RECON,ioos:station:SCCF:16:1,2019-10-03T06:15:00Z,26.4345,-81.9647,88.2,11111222 
SCCF RECON,ioos:station:SCCF:16:1,2019-10-03T07:15:00Z,26.4345,-81.9647,88.4,11111222 
SCCF RECON,ioos:station:SCCF:16:1,2019-10-03T08:15:00Z,26.4345,-81.9647,91.1,11111222 
SCCF RECON,ioos:station:SCCF:16:1,2019-10-03T09:15:00Z,26.4345,-81.9647,94.7,11111222 
SCCF RECON,ioos:station:SCCF:16:1,2019-10-03T10:15:00Z,26.4345,-81.9647,92.6,11111222 
SCCF RECON,ioos:station:SCCF:16:1,2019-10-03T11:15:00Z,26.4345,-81.9647,93.8,11111222 
SCCF RECON,ioos:station:SCCF:16:1,2019-10-03T12:15:00Z,26.4345,-81.9647,93.5,11111222 
SCCF RECON,ioos:station:SCCF:16:1,2019-10-03T13:15:00Z,26.4345,-81.9647,88.1,11111222 
SCCF RECON,ioos:station:SCCF:16:1,2019-10-03T14:15:00Z,26.4345,-81.9647,79.7,11111222 
SCCF RECON,ioos:station:SCCF:16:1,2019-10-03T15:15:00Z,26.4345,-81.9647,76.2,11111222 
SCCF RECON,ioos:station:SCCF:16:1,2019-10-03T16:15:00Z,26.4345,-81.9647,66.9,11111222 
SCCF RECON,ioos:station:SCCF:16:1,2019-10-03T17:15:00Z,26.4345,-81.9647,62.8,11111222 
SCCF RECON,ioos:station:SCCF:16:1,2019-10-03T18:15:00Z,26.4345,-81.9647,62.2,11111222 
SCCF RECON,ioos:station:SCCF:16:1,2019-10-03T19:15:00Z,26.4345,-81.9647,53.5,11111222 
SCCF RECON,ioos:station:SCCF:16:1,2019-10-03T20:15:00Z,26.4345,-81.9647,58.2,11111222 
SCCF RECON,ioos:station:SCCF:16:1,2019-10-03T21:15:00Z,26.4345,-81.9647,59.1,11111222 
SCCF RECON,ioos:station:SCCF:16:1,2019-10-03T22:15:00Z,26.4345,-81.9647,65.0,11111222 
SCCF RECON,ioos:station:SCCF:16:1,2019-10-04T04:15:00Z,26.4345,-81.9647,79.0,11111222 
SCCF RECON,ioos:station:SCCF:16:1,2019-10-04T05:15:00Z,26.4345,-81.9647,84.7,11111222 
SCCF RECON,ioos:station:SCCF:16:1,2019-10-04T06:15:00Z,26.4345,-81.9647,85.9,11111222 
SCCF RECON,ioos:station:SCCF:16:1,2019-10-04T07:15:00Z,26.4345,-81.9647,86.1,11111222 
SCCF RECON,ioos:station:SCCF:16:1,2019-10-04T08:15:00Z,26.4345,-81.9647,89.2,11111222 
SCCF RECON,ioos:station:SCCF:16:1,2019-10-04T09:15:00Z,26.4345,-81.9647,93.0,11111222 
SCCF RECON,ioos:station:SCCF:16:1,2019-10-04T10:15:00Z,26.4345,-81.9647,91.4,11111222 
SCCF RECON,ioos:station:SCCF:16:1,2019-10-04T11:15:00Z,26.4345,-81.9647,93.3,11111222 
SCCF RECON,ioos:station:SCCF:16:1,2019-10-04T12:15:00Z,26.4345,-81.9647,91.4,11111222 
SCCF RECON,ioos:station:SCCF:16:1,2019-10-04T13:15:00Z,26.4345,-81.9647,89.2,11111222 
SCCF RECON,ioos:station:SCCF:16:1,2019-10-04T14:15:00Z,26.4345,-81.9647,82.9,11111222 
SCCF RECON,ioos:station:SCCF:16:1,2019-10-04T15:15:00Z,26.4345,-81.9647,77.5,11111222 
SCCF RECON,ioos:station:SCCF:16:1,2019-10-04T16:15:00Z,26.4345,-81.9647,72.2,11111222 
SCCF RECON,ioos:station:SCCF:16:1,2019-10-04T18:15:00Z,26.4345,-81.9647,68.7,11111222 
SCCF RECON,ioos:station:SCCF:16:1,2019-10-04T19:15:00Z,26.4345,-81.9647,62.6,11111222 
SCCF RECON,ioos:station:SCCF:16:1,2019-10-04T20:15:00Z,26.4345,-81.9647,66.5,11111222 
SCCF RECON,ioos:station:SCCF:16:1,2019-10-04T21:15:00Z,26.4345,-81.9647,72.7,11111222 
SCCF RECON,ioos:station:SCCF:16:1,2019-10-04T22:15:00Z,26.4345,-81.9647,72.4,11111222 
SCCF RECON,ioos:station:SCCF:16:1,2019-10-05T04:15:00Z,26.4345,-81.9647,83.8,11111222 
SCCF RECON,ioos:station:SCCF:16:1,2019-10-05T05:15:00Z,26.4345,-81.9647,87.1,11111222 
SCCF RECON,ioos:station:SCCF:16:1,2019-10-05T06:15:00Z,26.4345,-81.9647,89.6,11111222 
SCCF RECON,ioos:station:SCCF:16:1,2019-10-05T07:15:00Z,26.4345,-81.9647,91.6,11111222 
SCCF RECON,ioos:station:SCCF:16:1,2019-10-05T08:15:00Z,26.4345,-81.9647,93.9,11111222 
SCCF RECON,ioos:station:SCCF:16:1,2019-10-05T09:15:00Z,26.4345,-81.9647,95.7,11111222 
SCCF RECON,ioos:station:SCCF:16:1,2019-10-05T10:15:00Z,26.4345,-81.9647,96.5,11111222 
SCCF RECON,ioos:station:SCCF:16:1,2019-10-05T11:15:00Z,26.4345,-81.9647,97.2,11111222 
SCCF RECON,ioos:station:SCCF:16:1,2019-10-05T12:15:00Z,26.4345,-81.9647,96.3,11111222 
SCCF RECON,ioos:station:SCCF:16:1,2019-10-05T13:15:00Z,26.4345,-81.9647,93.6,11111222 
SCCF RECON,ioos:station:SCCF:16:1,2019-10-05T14:15:00Z,26.4345,-81.9647,90.7,11111222 
SCCF RECON,ioos:station:SCCF:16:1,2019-10-05T15:15:00Z,26.4345,-81.9647,84.2,11111222 
SCCF RECON,ioos:station:SCCF:16:1,2019-10-05T16:15:00Z,26.4345,-81.9647,73.2,11111222 
SCCF RECON,ioos:station:SCCF:16:1,2019-10-05T17:15:00Z,26.4345,-81.9647,68.8,11111222 
SCCF RECON,ioos:station:SCCF:16:1,2019-10-05T18:15:00Z,26.4345,-81.9647,65.0,11111222 
SCCF RECON,ioos:station:SCCF:16:1,2019-10-05T19:15:00Z,26.4345,-81.9647,67.1,11111222 
SCCF RECON,ioos:station:SCCF:16:1,2019-10-05T20:15:00Z,26.4345,-81.9647,67.5,11111222 
SCCF RECON,ioos:station:SCCF:16:1,2019-10-05T21:15:00Z,26.4345,-81.9647,67.9,11111222 
SCCF RECON,ioos:station:SCCF:16:1,2019-10-05T22:15:00Z,26.4345,-81.9647,69.9,11111222 
SCCF RECON,ioos:station:SCCF:16:1,2019-10-06T04:15:00Z,26.4345,-81.9647,86.5,11111222 
SCCF RECON,ioos:station:SCCF:16:1,2019-10-06T05:15:00Z,26.4345,-81.9647,88.4,11111222 
SCCF RECON,ioos:station:SCCF:16:1,2019-10-06T06:15:00Z,26.4345,-81.9647,91.5,11111222 
SCCF RECON,ioos:station:SCCF:16:1,2019-10-06T07:15:00Z,26.4345,-81.9647,93.0,11111222 
SCCF RECON,ioos:station:SCCF:16:1,2019-10-06T08:15:00Z,26.4345,-81.9647,94.7,11111222 
SCCF RECON,ioos:station:SCCF:16:1,2019-10-06T09:15:00Z,26.4345,-81.9647,95.9,11111222 
SCCF RECON,ioos:station:SCCF:16:1,2019-10-06T10:15:00Z,26.4345,-81.9647,95.5,11111222 
SCCF RECON,ioos:station:SCCF:16:1,2019-10-06T11:15:00Z,26.4345,-81.9647,95.1,11111222 
SCCF RECON,ioos:station:SCCF:16:1,2019-10-06T12:15:00Z,26.4345,-81.9647,92.9,11111222 
SCCF RECON,ioos:station:SCCF:16:1,2019-10-06T13:15:00Z,26.4345,-81.9647,88.6,11111222 
SCCF RECON,ioos:station:SCCF:16:1,2019-10-06T14:15:00Z,26.4345,-81.9647,78.4,11111222 
SCCF RECON,ioos:station:SCCF:16:1,2019-10-06T15:15:00Z,26.4345,-81.9647,73.8,11111222 
SCCF RECON,ioos:station:SCCF:16:1,2019-10-06T16:15:00Z,26.4345,-81.9647,65.3,11111222 
SCCF RECON,ioos:station:SCCF:16:1,2019-10-06T17:15:00Z,26.4345,-81.9647,59.8,11111222 
SCCF RECON,ioos:station:SCCF:16:1,2019-10-06T18:15:00Z,26.4345,-81.9647,62.7,11111222 
SCCF RECON,ioos:station:SCCF:16:1,2019-10-06T19:15:00Z,26.4345,-81.9647,58.2,11111222 
SCCF RECON,ioos:station:SCCF:16:1,2019-10-06T20:15:00Z,26.4345,-81.9647,52.2,11111222 
SCCF RECON,ioos:station:SCCF:16:1,2019-10-06T21:15:00Z,26.4345,-81.9647,56.0,11111222 
SCCF RECON,ioos:station:SCCF:16:1,2019-10-06T22:15:00Z,26.4345,-81.9647,79.4,11111222 
SCCF RECON,ioos:station:SCCF:16:1,2019-10-07T04:15:00Z,26.4345,-81.9647,93.9,11111222 
SCCF RECON,ioos:station:SCCF:16:1,2019-10-07T05:15:00Z,26.4345,-81.9647,93.3,11111222 
SCCF RECON,ioos:station:SCCF:16:1,2019-10-07T06:15:00Z,26.4345,-81.9647,93.9,11111222 
SCCF RECON,ioos:station:SCCF:16:1,2019-10-07T07:15:00Z,26.4345,-81.9647,94.7,11111222 
SCCF RECON,ioos:station:SCCF:16:1,2019-10-07T08:15:00Z,26.4345,-81.9647,96.5,11111222 
SCCF RECON,ioos:station:SCCF:16:1,2019-10-07T09:15:00Z,26.4345,-81.9647,96.7,11111222 
SCCF RECON,ioos:station:SCCF:16:1,2019-10-07T10:15:00Z,26.4345,-81.9647,97.0,11111222 
SCCF RECON,ioos:station:SCCF:16:1,2019-10-07T11:15:00Z,26.4345,-81.9647,97.2,11111222 
SCCF RECON,ioos:station:SCCF:16:1,2019-10-07T12:15:00Z,26.4345,-81.9647,99.1,11111222 
SCCF RECON,ioos:station:SCCF:16:1,2019-10-07T15:15:00Z,26.4345,-81.9647,79.4,11111222 
SCCF RECON,ioos:station:SCCF:16:1,2019-10-07T16:15:00Z,26.4345,-81.9647,74.6,11111222 
SCCF RECON,ioos:station:SCCF:16:1,2019-10-07T17:15:00Z,26.4345,-81.9647,69.6,11111222 
SCCF RECON,ioos:station:SCCF:16:1,2019-10-07T18:15:00Z,26.4345,-81.9647,76.8,11111222 
SCCF RECON,ioos:station:SCCF:16:1,2019-10-07T19:15:00Z,26.4345,-81.9647,80.5,11111222 
SCCF RECON,ioos:station:SCCF:16:1,2019-10-07T20:15:00Z,26.4345,-81.9647,85.2,11111222 
SCCF RECON,ioos:station:SCCF:16:1,2019-10-07T21:15:00Z,26.4345,-81.9647,97.5,11111222 
SCCF RECON,ioos:station:SCCF:16:1,2019-10-07T22:15:00Z,26.4345,-81.9647,85.2,11111222 
SCCF RECON,ioos:station:SCCF:16:1,2019-10-08T04:15:00Z,26.4345,-81.9647,98.0,11111222 
SCCF RECON,ioos:station:SCCF:16:1,2019-10-08T05:15:00Z,26.4345,-81.9647,96.6,11111222 
SCCF RECON,ioos:station:SCCF:16:1,2019-10-08T06:15:00Z,26.4345,-81.9647,94.4,11111222 
SCCF RECON,ioos:station:SCCF:16:1,2019-10-08T07:15:00Z,26.4345,-81.9647,91.0,11111222 
SCCF RECON,ioos:station:SCCF:16:1,2019-10-08T08:15:00Z,26.4345,-81.9647,92.2,11111222 
SCCF RECON,ioos:station:SCCF:16:1,2019-10-08T09:15:00Z,26.4345,-81.9647,98.1,11111222 
SCCF RECON,ioos:station:SCCF:16:1,2019-10-08T10:15:00Z,26.4345,-81.9647,98.0,11111222 
SCCF RECON,ioos:station:SCCF:16:1,2019-10-08T11:15:00Z,26.4345,-81.9647,99.0,11111222 
SCCF RECON,ioos:station:SCCF:16:1,2019-10-08T12:15:00Z,26.4345,-81.9647,95.6,11111222 
SCCF RECON,ioos:station:SCCF:16:1,2019-10-08T13:15:00Z,26.4345,-81.9647,94.5,11111222 
SCCF RECON,ioos:station:SCCF:16:1,2019-10-08T14:15:00Z,26.4345,-81.9647,91.7,11111222 
SCCF RECON,ioos:station:SCCF:16:1,2019-10-08T15:15:00Z,26.4345,-81.9647,90.5,11111222 
SCCF RECON,ioos:station:SCCF:16:1,2019-10-08T16:15:00Z,26.4345,-81.9647,86.2,11111222 
SCCF RECON,ioos:station:SCCF:16:1,2019-10-08T17:15:00Z,26.4345,-81.9647,87.2,11111222 
SCCF RECON,ioos:station:SCCF:16:1,2019-10-08T19:15:00Z,26.4345,-81.9647,82.6,11111222 
SCCF RECON,ioos:station:SCCF:16:1,2019-10-08T20:15:00Z,26.4345,-81.9647,78.7,11111222 
SCCF RECON,ioos:station:SCCF:16:1,2019-10-08T21:15:00Z,26.4345,-81.9647,79.8,11111222 
SCCF RECON,ioos:station:SCCF:16:1,2019-10-08T22:15:00Z,26.4345,-81.9647,79.6,11111222 
SCCF RECON,ioos:station:SCCF:16:1,2019-10-09T04:15:00Z,26.4345,-81.9647,82.2,11111222 
SCCF RECON,ioos:station:SCCF:16:1,2019-10-09T05:15:00Z,26.4345,-81.9647,87.4,11111222 
SCCF RECON,ioos:station:SCCF:16:1,2019-10-09T06:15:00Z,26.4345,-81.9647,89.7,11111222 
SCCF RECON,ioos:station:SCCF:16:1,2019-10-09T07:15:00Z,26.4345,-81.9647,91.1,11111222 
SCCF RECON,ioos:station:SCCF:16:1,2019-10-09T08:15:00Z,26.4345,-81.9647,93.7,11111222 
SCCF RECON,ioos:station:SCCF:16:1,2019-10-09T09:15:00Z,26.4345,-81.9647,93.2,11111222 
SCCF RECON,ioos:station:SCCF:16:1,2019-10-09T10:15:00Z,26.4345,-81.9647,92.4,11111222 
SCCF RECON,ioos:station:SCCF:16:1,2019-10-09T11:15:00Z,26.4345,-81.9647,96.9,11111222 
SCCF RECON,ioos:station:SCCF:16:1,2019-10-09T12:15:00Z,26.4345,-81.9647,95.4,11111222 
SCCF RECON,ioos:station:SCCF:16:1,2019-10-09T13:15:00Z,26.4345,-81.9647,93.2,11111222 
SCCF RECON,ioos:station:SCCF:16:1,2019-10-09T14:15:00Z,26.4345,-81.9647,91.4,11111222 
SCCF RECON,ioos:station:SCCF:16:1,2019-10-09T15:15:00Z,26.4345,-81.9647,87.1,11111222 
SCCF RECON,ioos:station:SCCF:16:1,2019-10-09T16:15:00Z,26.4345,-81.9647,85.4,11111222 
SCCF RECON,ioos:station:SCCF:16:1,2019-10-09T17:15:00Z,26.4345,-81.9647,77.8,11111222 
SCCF RECON,ioos:station:SCCF:16:1,2019-10-09T18:15:00Z,26.4345,-81.9647,82.8,11111222 
SCCF RECON,ioos:station:SCCF:16:1,2019-10-09T19:15:00Z,26.4345,-81.9647,82.8,11111222 
SCCF RECON,ioos:station:SCCF:16:1,2019-10-09T20:15:00Z,26.4345,-81.9647,85.9,11111222 
SCCF RECON,ioos:station:SCCF:16:1,2019-10-09T21:15:00Z,26.4345,-81.9647,82.3,11111222 
SCCF RECON,ioos:station:SCCF:16:1,2019-10-09T22:15:00Z,26.4345,-81.9647,81.6,11111222 
SCCF RECON,ioos:station:SCCF:16:1,2019-10-10T04:15:00Z,26.4345,-81.9647,96.7,11111222 
SCCF RECON,ioos:station:SCCF:16:1,2019-10-10T06:15:00Z,26.4345,-81.9647,96.2,11111222 
SCCF RECON,ioos:station:SCCF:16:1,2019-10-10T07:15:00Z,26.4345,-81.9647,98.2,11111222 
SCCF RECON,ioos:station:SCCF:16:1,2019-10-10T08:15:00Z,26.4345,-81.9647,97.0,11111222 
SCCF RECON,ioos:station:SCCF:16:1,2019-10-10T09:15:00Z,26.4345,-81.9647,97.4,11111222 
SCCF RECON,ioos:station:SCCF:16:1,2019-10-10T10:15:00Z,26.4345,-81.9647,96.9,11111222 
SCCF RECON,ioos:station:SCCF:16:1,2019-10-10T11:15:00Z,26.4345,-81.9647,97.8,11111222 
SCCF RECON,ioos:station:SCCF:16:1,2019-10-10T12:15:00Z,26.4345,-81.9647,98.6,11111222 
SCCF RECON,ioos:station:SCCF:16:1,2019-10-10T13:15:00Z,26.4345,-81.9647,97.4,11111222 
SCCF RECON,ioos:station:SCCF:16:1,2019-10-10T14:15:00Z,26.4345,-81.9647,92.4,11111222 
SCCF RECON,ioos:station:SCCF:16:1,2019-10-10T15:15:00Z,26.4345,-81.9647,85.7,11111222 
SCCF RECON,ioos:station:SCCF:16:1,2019-10-10T16:15:00Z,26.4345,-81.9647,76.1,11111222 
SCCF RECON,ioos:station:SCCF:16:1,2019-10-10T17:15:00Z,26.4345,-81.9647,71.3,11111222 
SCCF RECON,ioos:station:SCCF:16:1,2019-10-10T18:15:00Z,26.4345,-81.9647,67.9,11111222 
SCCF RECON,ioos:station:SCCF:16:1,2019-10-10T19:15:00Z,26.4345,-81.9647,65.6,11111222 
SCCF RECON,ioos:station:SCCF:16:1,2019-10-10T20:15:00Z,26.4345,-81.9647,64.9,11111222 
SCCF RECON,ioos:station:SCCF:16:1,2019-10-10T21:15:00Z,26.4345,-81.9647,72.0,11111222 
SCCF RECON,ioos:station:SCCF:16:1,2019-10-10T22:15:00Z,26.4345,-81.9647,74.9,11111222 
SCCF RECON,ioos:station:SCCF:16:1,2019-10-11T04:15:00Z,26.4345,-81.9647,87.6,11111222 
SCCF RECON,ioos:station:SCCF:16:1,2019-10-11T05:15:00Z,26.4345,-81.9647,90.0,11111222 
SCCF RECON,ioos:station:SCCF:16:1,2019-10-11T06:15:00Z,26.4345,-81.9647,91.6,11111222 
SCCF RECON,ioos:station:SCCF:16:1,2019-10-11T07:15:00Z,26.4345,-81.9647,93.2,11111222 
SCCF RECON,ioos:station:SCCF:16:1,2019-10-11T08:15:00Z,26.4345,-81.9647,94.4,11111222 
SCCF RECON,ioos:station:SCCF:16:1,2019-10-11T09:15:00Z,26.4345,-81.9647,95.3,11111222 
SCCF RECON,ioos:station:SCCF:16:1,2019-10-11T10:15:00Z,26.4345,-81.9647,95.0,11111222 
SCCF RECON,ioos:station:SCCF:16:1,2019-10-11T11:15:00Z,26.4345,-81.9647,94.9,11111222 
SCCF RECON,ioos:station:SCCF:16:1,2019-10-11T12:15:00Z,26.4345,-81.9647,94.8,11111222 
SCCF RECON,ioos:station:SCCF:16:1,2019-10-11T13:15:00Z,26.4345,-81.9647,91.3,11111222 
SCCF RECON,ioos:station:SCCF:16:1,2019-10-11T15:15:00Z,26.4345,-81.9647,76.6,11111222 
SCCF RECON,ioos:station:SCCF:16:1,2019-10-11T16:15:00Z,26.4345,-81.9647,71.3,11111222 
SCCF RECON,ioos:station:SCCF:16:1,2019-10-11T17:15:00Z,26.4345,-81.9647,67.4,11111222 
SCCF RECON,ioos:station:SCCF:16:1,2019-10-11T18:15:00Z,26.4345,-81.9647,62.3,11111222 
SCCF RECON,ioos:station:SCCF:16:1,2019-10-11T19:15:00Z,26.4345,-81.9647,61.1,11111222 
SCCF RECON,ioos:station:SCCF:16:1,2019-10-11T21:15:00Z,26.4345,-81.9647,49.7,11111222 
SCCF RECON,ioos:station:SCCF:16:1,2019-10-11T22:15:00Z,26.4345,-81.9647,55.9,11111222 
SCCF RECON,ioos:station:SCCF:16:1,2019-10-12T04:15:00Z,26.4345,-81.9647,86.4,11111222 
SCCF RECON,ioos:station:SCCF:16:1,2019-10-12T06:15:00Z,26.4345,-81.9647,92.1,11111222 
SCCF RECON,ioos:station:SCCF:16:1,2019-10-12T07:15:00Z,26.4345,-81.9647,91.8,11111222 
SCCF RECON,ioos:station:SCCF:16:1,2019-10-12T08:15:00Z,26.4345,-81.9647,90.8,11111222 
SCCF RECON,ioos:station:SCCF:16:1,2019-10-12T09:15:00Z,26.4345,-81.9647,92.1,11111222 
SCCF RECON,ioos:station:SCCF:16:1,2019-10-12T10:15:00Z,26.4345,-81.9647,89.8,11111222 
SCCF RECON,ioos:station:SCCF:16:1,2019-10-12T11:15:00Z,26.4345,-81.9647,87.1,11111222 
SCCF RECON,ioos:station:SCCF:16:1,2019-10-12T12:15:00Z,26.4345,-81.9647,87.4,11111222 
SCCF RECON,ioos:station:SCCF:16:1,2019-10-12T13:15:00Z,26.4345,-81.9647,80.7,11111222 
SCCF RECON,ioos:station:SCCF:16:1,2019-10-12T14:15:00Z,26.4345,-81.9647,77.2,11111222 
SCCF RECON,ioos:station:SCCF:16:1,2019-10-12T15:15:00Z,26.4345,-81.9647,73.3,11111222 
SCCF RECON,ioos:station:SCCF:16:1,2019-10-12T16:15:00Z,26.4345,-81.9647,72.5,11111222 
SCCF RECON,ioos:station:SCCF:16:1,2019-10-12T17:15:00Z,26.4345,-81.9647,71.2,11111222 
SCCF RECON,ioos:station:SCCF:16:1,2019-10-12T18:15:00Z,26.4345,-81.9647,73.2,11111222 
SCCF RECON,ioos:station:SCCF:16:1,2019-10-12T19:15:00Z,26.4345,-81.9647,74.1,11111222 
SCCF RECON,ioos:station:SCCF:16:1,2019-10-12T20:15:00Z,26.4345,-81.9647,70.0,11111222 
SCCF RECON,ioos:station:SCCF:16:1,2019-10-12T21:15:00Z,26.4345,-81.9647,67.4,11111222 
SCCF RECON,ioos:station:SCCF:16:1,2019-10-12T22:15:00Z,26.4345,-81.9647,67.1,11111222 
SCCF RECON,ioos:station:SCCF:16:1,2019-10-13T04:15:00Z,26.4345,-81.9647,83.9,11111222 
SCCF RECON,ioos:station:SCCF:16:1,2019-10-13T05:15:00Z,26.4345,-81.9647,80.7,11111222 
SCCF RECON,ioos:station:SCCF:16:1,2019-10-13T06:15:00Z,26.4345,-81.9647,83.2,11111222 
SCCF RECON,ioos:station:SCCF:16:1,2019-10-13T07:15:00Z,26.4345,-81.9647,86.8,11111222 
SCCF RECON,ioos:station:SCCF:16:1,2019-10-13T08:15:00Z,26.4345,-81.9647,85.5,11111222 
SCCF RECON,ioos:station:SCCF:16:1,2019-10-13T09:15:00Z,26.4345,-81.9647,82.2,11111222 
SCCF RECON,ioos:station:SCCF:16:1,2019-10-13T10:15:00Z,26.4345,-81.9647,84.0,11111222 
SCCF RECON,ioos:station:SCCF:16:1,2019-10-13T11:15:00Z,26.4345,-81.9647,84.4,11111222 
SCCF RECON,ioos:station:SCCF:16:1,2019-10-13T12:15:00Z,26.4345,-81.9647,85.4,11111222 
SCCF RECON,ioos:station:SCCF:16:1,2019-10-13T13:15:00Z,26.4345,-81.9647,79.2,11111222 
SCCF RECON,ioos:station:SCCF:16:1,2019-10-13T14:15:00Z,26.4345,-81.9647,77.6,11111222 
SCCF RECON,ioos:station:SCCF:16:1,2019-10-13T15:15:00Z,26.4345,-81.9647,73.3,11111222 
SCCF RECON,ioos:station:SCCF:16:1,2019-10-13T16:15:00Z,26.4345,-81.9647,74.4,11111222 
SCCF RECON,ioos:station:SCCF:16:1,2019-10-13T17:15:00Z,26.4345,-81.9647,71.0,11111222 
SCCF RECON,ioos:station:SCCF:16:1,2019-10-13T18:15:00Z,26.4345,-81.9647,66.6,11111222 
SCCF RECON,ioos:station:SCCF:16:1,2019-10-13T19:15:00Z,26.4345,-81.9647,67.1,11111222 
SCCF RECON,ioos:station:SCCF:16:1,2019-10-13T20:15:00Z,26.4345,-81.9647,69.2,11111222 
SCCF RECON,ioos:station:SCCF:16:1,2019-10-13T21:15:00Z,26.4345,-81.9647,73.4,11111222 
SCCF RECON,ioos:station:SCCF:16:1,2019-10-13T22:15:00Z,26.4345,-81.9647,74.2,11111222 
SCCF RECON,ioos:station:SCCF:16:1,2019-10-14T04:15:00Z,26.4345,-81.9647,90.7,11111222 
SCCF RECON,ioos:station:SCCF:16:1,2019-10-14T06:15:00Z,26.4345,-81.9647,91.5,11111222 
SCCF RECON,ioos:station:SCCF:16:1,2019-10-14T07:15:00Z,26.4345,-81.9647,94.4,11111222 
SCCF RECON,ioos:station:SCCF:16:1,2019-10-14T08:15:00Z,26.4345,-81.9647,94.6,11111222 
SCCF RECON,ioos:station:SCCF:16:1,2019-10-14T09:15:00Z,26.4345,-81.9647,94.5,11111222 
SCCF RECON,ioos:station:SCCF:16:1,2019-10-14T10:15:00Z,26.4345,-81.9647,91.8,11111222 
SCCF RECON,ioos:station:SCCF:16:1,2019-10-14T11:15:00Z,26.4345,-81.9647,93.1,11111222 
SCCF RECON,ioos:station:SCCF:16:1,2019-10-14T12:15:00Z,26.4345,-81.9647,94.7,11111222 
SCCF RECON,ioos:station:SCCF:16:1,2019-10-14T13:15:00Z,26.4345,-81.9647,88.4,11111222 
SCCF RECON,ioos:station:SCCF:16:1,2019-10-14T14:15:00Z,26.4345,-81.9647,82.5,11111222 
SCCF RECON,ioos:station:SCCF:16:1,2019-10-14T15:15:00Z,26.4345,-81.9647,76.9,11111222 
SCCF RECON,ioos:station:SCCF:16:1,2019-10-14T16:15:00Z,26.4345,-81.9647,70.4,11111222 
SCCF RECON,ioos:station:SCCF:16:1,2019-10-14T17:15:00Z,26.4345,-81.9647,74.0,11111222 
SCCF RECON,ioos:station:SCCF:16:1,2019-10-14T18:15:00Z,26.4345,-81.9647,74.4,11111222 
SCCF RECON,ioos:station:SCCF:16:1,2019-10-14T19:15:00Z,26.4345,-81.9647,76.8,11111222 
SCCF RECON,ioos:station:SCCF:16:1,2019-10-14T20:15:00Z,26.4345,-81.9647,80.6,11111222 
SCCF RECON,ioos:station:SCCF:16:1,2019-10-14T21:15:00Z,26.4345,-81.9647,80.3,11111222 
SCCF RECON,ioos:station:SCCF:16:1,2019-10-14T22:15:00Z,26.4345,-81.9647,80.0,11111222 
SCCF RECON,ioos:station:SCCF:16:1,2019-10-15T04:15:00Z,26.4345,-81.9647,87.9,11111222 
SCCF RECON,ioos:station:SCCF:16:1,2019-10-15T06:15:00Z,26.4345,-81.9647,86.6,11111222 
SCCF RECON,ioos:station:SCCF:16:1,2019-10-15T07:15:00Z,26.4345,-81.9647,86.1,11111222 
SCCF RECON,ioos:station:SCCF:16:1,2019-10-15T08:15:00Z,26.4345,-81.9647,84.0,11111222 
SCCF RECON,ioos:station:SCCF:16:1,2019-10-15T09:15:00Z,26.4345,-81.9647,85.4,11111222 
SCCF RECON,ioos:station:SCCF:16:1,2019-10-15T10:15:00Z,26.4345,-81.9647,86.8,11111222 
SCCF RECON,ioos:station:SCCF:16:1,2019-10-15T11:15:00Z,26.4345,-81.9647,83.0,11111222 
SCCF RECON,ioos:station:SCCF:16:1,2019-10-15T12:15:00Z,26.4345,-81.9647,80.3,11111222 
SCCF RECON,ioos:station:SCCF:16:1,2019-10-15T13:15:00Z,26.4345,-81.9647,82.1,11111222 
SCCF RECON,ioos:station:SCCF:16:1,2019-10-15T14:15:00Z,26.4345,-81.9647,78.8,11111222 
SCCF RECON,ioos:station:SCCF:16:1,2019-10-15T15:15:00Z,26.4345,-81.9647,75.5,11111222 
SCCF RECON,ioos:station:SCCF:16:1,2019-10-15T16:15:00Z,26.4345,-81.9647,73.4,11111222 
SCCF RECON,ioos:station:SCCF:16:1,2019-10-15T17:15:00Z,26.4345,-81.9647,73.8,11111222 
SCCF RECON,ioos:station:SCCF:16:1,2019-10-15T18:15:00Z,26.4345,-81.9647,74.5,11111222 
SCCF RECON,ioos:station:SCCF:16:1,2019-10-15T19:15:00Z,26.4345,-81.9647,79.9,11111222 
SCCF RECON,ioos:station:SCCF:16:1,2019-10-15T20:15:00Z,26.4345,-81.9647,77.0,11111222 
SCCF RECON,ioos:station:SCCF:16:1,2019-10-15T21:15:00Z,26.4345,-81.9647,78.9,11111222 
SCCF RECON,ioos:station:SCCF:16:1,2019-10-15T22:15:00Z,26.4345,-81.9647,78.0,11111222 
SCCF RECON,ioos:station:SCCF:16:1,2019-10-16T04:15:00Z,26.4345,-81.9647,87.6,11111222 